This demonstration page uses our WeatherBlox Daily Observations layout. Learn more.

Left ArrowRight Arrow

41.55636, -103.73856

Hourly Observations for April 7, 2020

Temp ( °F °C ) Dew Point ( °F °C ) Humidity (%) Winds ( mph kmh ) Pressure ( in mb ) Visibility ( mi km ) Precip ( " mm )
6:58 pm 18:58 Mostly Cloudy 68 19.9 16 -8.8 14 14 W 12 19 29.71 1006 10 16 0.00 0.00
7:58 pm 19:58 Mostly Clear 63 17 14 -10 15 15 W 8 13 29.74 1007 10 16 0.00 0.00
8:58 pm 20:58 Mostly Cloudy 58 14.7 15 -9.5 18 18 SW 6 9 29.75 1008 10 16 0.00 0.00
9:58 pm 21:58 Partly Cloudy 54 12.2 15 -9.6 21 21 Calm 29.74 1007 10 16 0.00 0.00
10:58 pm 22:58 Clear 53 11.4 16 -9.1 23 23 W 3 6 29.75 1007 10 16 0.00 0.00
11:58 pm 23:58 Clear 46 7.7 18 -7.8 33 33 W 7 11 29.78 1008 10 16 0.00 0.00
12:58 am 00:58 Clear 43 5.9 22 -5.3 45 45 WNW 5 7 29.80 1009 10 16 0.00 0.00
1:58 am 01:58 Clear 41 4.8 23 -5.1 49 49 NW 5 7 29.82 1010 10 16 0.00 0.00
2:58 am 02:58 Clear 40 4.4 23 -5.1 50 50 NNW 5 7 29.83 1010 10 16 0.00 0.00
3:58 am 03:58 Clear 40 4.7 27 -2.7 59 59 W 13 20 29.83 1010 10 16 0.00 0.00
4:58 am 04:58 Clear 39 4.1 28 -2.3 63 63 NNW 12 19 29.86 1011 10 16 0.00 0.00
5:58 am 05:58 Clear 37 2.6 28 -2.2 71 71 WNW 7 11 29.89 1012 10 16 0.00 0.00
6:58 am 06:58 Sunny 39 3.7 29 -1.7 68 68 W 14 22 29.89 1012 10 16 0.00 0.00
7:58 am 07:58 Sunny 53 11.6 29 -1.7 40 40 W 20 31 29.88 1012 10 16 0.00 0.00
8:58 am 08:58 Sunny 57 14 26 -3.4 30 30 W 26 43 29.89 1012 10 16 0.00 0.00
9:58 am 09:58 Sunny 60 15.6 25 -3.8 26 26 W 31 50 29.89 1012 10 16 0.00 0.00
10:58 am 10:58 Sunny 63 17.4 24 -4.4 22 22 W 30 48 29.86 1011 10 16 0.00 0.00
11:58 am 11:58 Sunny 67 19.3 17 -8.2 15 15 WNW 38 61 29.87 1012 10 16 0.00 0.00
12:58 pm 12:58 Sunny 69 20.5 17 -8.5 13 13 W 32 52 29.85 1011 10 16 0.00 0.00
1:56 pm 13:56 Sunny 69 20.8 17 -8.5 13 13 W 33 54 29.84 1010 10 16 0.00 0.00
2:58 pm 14:58 Sunny 70 21.3 18 -7.9 13 13 WNW 30 48 29.82 1010 10 16 0.00 0.00
3:58 pm 15:58 Sunny 70 21.2 17 -8.1 13 13 WNW 30 48 29.81 1009 10 16 0.00 0.00
4:58 pm 16:58 Sunny 70 21 18 -7.6 14 14 NW 25 41 29.82 1010 10 16 0.00 0.00
5:58 pm 17:58 Sunny 67 19.3 19 -7.2 16 16 NW 23 37 29.83 1010 10 16 0.00 0.00

Powered by AerisWeather